Weather in Poselok im. Kosta Khetagurova

Russia / Karachay-Cherkess Republic     43°48′11″N   41°54′23″E
temp.,
°C
wind,
m/s
gust,
m/s
humid.,
%
clouds,
%
prec.,
mm/h
press.,
hPa
HPBL,
m
16 may, sun
sun1600:00+10se338933 0.0 101543
03:00+9se3386100 0.0 101445
06:00+10se347950 0.0 101261
09:00+21ese01410 0.0 1009495
12:00+24nnw33355 0.0 10071767
15:00+24nnw324591 0.0 10051697
18:00+14e349128 2.7 1008104
21:00+12se3486100 2.7 100857
17 may, mon
mon1700:00+11se3476100 0.0 100860
03:00+11se45718 0.0 100866
06:00+12se356677 0.0 100880
09:00+23e023684 0.0 1005585
12:00+23nnw4445100 0.1 10051430
15:00+18nnw3482100 3.4 1007500
18:00+14wnw2295100 3.6 1009152
21:00+12nw249890 11.0 1011184
18 may, tue
tue1800:00+10s1198100 1.1 101069
03:00+10sw1198100 2.3 101062
06:00+10ssw1196100 2.4 101188
09:00+12nw2391100 3.6 1011490
12:00+17nnw116192 0.8 10101105
15:00+15nnw2279100 3.9 1010722
18:00+12nw239538 5.2 1012158
21:00+9se119617 6.3 101411
19 may, wed
wed1900:00+7se33935 0.0 101444
03:00+6se3388100 0.0 101350
06:00+8s3483100 0.0 101470
09:00+11wnw027613 0.9 1015627
12:00+17w355011 0.1 10131549
15:00+18w23404 0.3 10132108
18:00+12n23783 0.4 1016421
21:00+7sse119729 0.4 101911
20 may, thu
thu2000:00+6sse118863 0.0 101932
03:00+3se33820 0.0 102140
06:00+5se22650 0.0 102155
09:00+16n11310 0.0 1017609
12:00+19nnw32373 0.0 10151083
15:00+19nnw32513 0.0 10151110
18:00+17nw22710 0.0 1016411
21:00+11se22940 0.0 101725